Flag for Germany Weather past 2 weeks in Siegburg, North Rhine-Westphalia, Germany

Now
76 °F

Partly sunny.


Feels Like: 78 °F
Forecast: 64 / 83 °F
Wind: 5 mph from Northeast

Location: Bonn-Hangelar

Current Time: Jul 22, 2014 at 5:55:11 PM

Latest Report: Jul 22, 2014 at 5:00 PM


Visibility: 11 mi

Pressure: 30.03 "Hg

Humidity: 64%

Dew point: 63 °F

Location of SiegburgLocation

Historic Weather in Siegburg — Graph

°F

Siegburg temperature yesterday

Maximum temperature yesterday: 67 °F (at 12:00 AM)
Minimum temperature yesterday: 64 °F (at 3:00 AM)
Average temperature yesterday: 65 °F

Past Weeks' High & Low Weather Summary

 TemperatureHumidityPressure
High93 °F (Jul 19, 5:00 PM)100% (Jul 10, 3:00 AM)30.20 "Hg (Jul 10, 3:00 AM)
Low54 °F (Jul 9, 2:00 AM)23% (Jul 19, 3:00 PM)29.71 "Hg (Jul 9, 6:00 PM)
Average67 °F79%29.95 "Hg
* Reported Jul 7 5:00 PM — Jul 22 5:00 PM, Siegburg, Weather by CustomWeather, © 2014

Note: Actual official high and low records may vary slightly from our data, if they occured in-between our weather recording intervals... More about our weather records

Advertising

Siegburg weather history for previous 24 hours

 ConditionsComfort  
Time TempWeatherWind HumidityBarometerVisibility
5:00 PM
Jul 22
76 °FPartly sunny.5 mph64%30.03 "Hg11 mi
4:00 PM76 °FOvercast.5 mph65%30.04 "Hg11 mi
3:00 PM75 °FOvercast.5 mph64%30.04 "Hg11 mi
2:00 PM75 °FPartly sunny.3 mph67%30.04 "Hg9 mi
1:00 PM73 °FOvercast.3 mph76%30.05 "Hg7 mi
12:00 PM71 °FFog.3 mph91%30.04 "Hg4 mi
11:00 AM67 °FFog.2 mph99%30.05 "Hg1 mi
10:00 AM66 °FFog.3 mph100%30.04 "Hg0 mi
9:00 AM65 °FFog.3 mph99%30.03 "Hg0 mi
8:00 AM65 °FFog.3 mph99%30.01 "Hg0 mi
7:00 AM65 °FFog.2 mph99%30.01 "Hg0 mi
6:00 AM65 °FFog.3 mph99%30.00 "Hg0 mi
5:00 AM65 °FLow clouds.3 mph99%30.00 "Hg0 mi
4:00 AM64 °FDrizzle. Low clouds.3 mph99%29.99 "Hg0 mi
3:00 AM64 °FDrizzle. Low clouds.3 mph99%30.00 "Hg0 mi
2:00 AM64 °FDrizzle. Low clouds.3 mph99%30.00 "Hg0 mi
1:00 AM64 °FLow clouds.5 mph99%30.00 "Hg1 mi
12:00 AM64 °FDrizzle. Low clouds.3 mph98%29.99 "Hg1 mi
11:00 PM
Jul 21
64 °FLow clouds.5 mph98%29.99 "Hg1 mi
10:00 PM64 °FRain. Low clouds.6 mph98%29.98 "Hg1 mi
9:00 PM64 °FRain. Low clouds.6 mph98%29.97 "Hg2 mi
8:00 PM65 °FLight rain. Low clouds.6 mph97%29.96 "Hg2 mi
7:00 PM65 °FLight rain. Low clouds.6 mph97%29.96 "Hg1 mi
6:00 PM65 °FLow clouds.8 mph96%29.95 "Hg4 mi
5:00 PM65 °FRain. Low clouds.5 mph97%29.94 "Hg2 mi
Weather by CustomWeather, © 2014

See weather overviewHow to use our weather pages